Back to catalog

FENGYUN 1C DEB

AliveSSO
NORAD 30725·DEBRIS·🇨🇳 China

Launched May 10, 1999 from Taiyuan Satellite Launch Center

Loading…

Next Passes (next 24 hours)

TLE

FreshSource: Space-Track

Epoch: Sep 14, 2026, 03:34 UTC

1 30725U 99025ASK 26257.14870947  .00001669  00000-0  81767-3 0  9998
2 30725  98.9919 334.1071 0084719 328.0548  60.7507 14.17392594  2419

Track FENGYUN 1C DEB in real time with AllMySat

Download on the App Store